Weather History for Stuart, FL

Change the Weather History Date:

Monday, December 31, 2012

  Actual Average Record
Temperature  
Mean Temperature 68 °F -  
Max Temperature 73 °F 76 °F 84 °F (2001)
Min Temperature 64 °F 58 °F 32 °F (1961)
Cooling Degree Days 4    
Growing Degree Days 18 (Base 50)    
Moisture  
Dew Point 53 °F    
Average Humidity 61    
Maximum Humidity 83    
Minimum Humidity 46    
Precipitation  
Precipitation 0.00 in - - ()
Sea Level Pressure  
Sea Level Pressure 30.27 in    
Wind  
Wind Speed 9 mph (ESE)    
Max Wind Speed 16 mph    
Max Gust Speed 21 mph    
Visibility 10 miles    
Events      
Averages and records for this station are not official NWS values.
T = Trace of Precipitation, MM = Missing Value Source: NWS Daily Summary

Daily Weather History Graph

Daily Weather History Graph

Search for Another Location

Airport:

Trip Planner

Search our weather history database for the weather conditions in past years. The results will help you decide how hot, cold, wet, or windy it might be!

Date:

Astronomy

Dec. 31, 2012 Rise Set
Actual Time 7:10 AM EST 5:38 PM EST
Civil Twilight 6:44 AM EST 6:03 PM EST
Nautical Twilight 6:15 AM EST 6:32 PM EST
Astronomical Twilight 5:47 AM EST 7:01 PM EST
Moon 8:47 PM EST (12/31) 9:08 AM EST (12/31)
Length of Visible Light 11h 18m
Length of Day
10h 27m
Waning Gibbous, 90% of the Moon is Illuminated
Dec 31
Waning Gibbous
Jan 4
Last Quarter
Jan 11
New
Jan 18
First Quarter
Jan 26
Full

Hourly Weather History & Observations

Time (EST) Temp. Dew Point Humidity Pressure Visibility Wind Dir Wind Speed Gust Speed Precip Events Conditions
12:15 AM 64.4 °F 50.0 °F 59% 30.31 in 10.0 mi ENE 8.1 mph - N/A   Overcast
12:35 AM 66.2 °F 51.8 °F 60% 30.31 in 10.0 mi ENE 13.8 mph - N/A   Overcast
12:55 AM 64.4 °F 50.0 °F 59% 30.31 in 10.0 mi ENE 9.2 mph - N/A   Mostly Cloudy
1:15 AM 66.2 °F 51.8 °F 60% 30.30 in 10.0 mi ENE 11.5 mph 17.3 mph N/A   Overcast
1:35 AM 66.2 °F 50.0 °F 56% 30.31 in 10.0 mi East 9.2 mph - N/A   Mostly Cloudy
1:55 AM 66.2 °F 50.0 °F 56% 30.30 in 10.0 mi ENE 9.2 mph - N/A   Mostly Cloudy
2:15 AM 66.2 °F 50.0 °F 56% 30.30 in 10.0 mi East 9.2 mph - N/A   Overcast
2:35 AM 66.2 °F 50.0 °F 56% 30.30 in 10.0 mi East 10.4 mph 16.1 mph N/A   Overcast
2:55 AM 66.2 °F 50.0 °F 56% 30.29 in 10.0 mi East 12.7 mph 17.3 mph N/A   Mostly Cloudy
3:15 AM 68.0 °F 50.0 °F 52% 30.29 in 10.0 mi East 10.4 mph - N/A   Mostly Cloudy
3:35 AM 68.0 °F 50.0 °F 52% 30.28 in 10.0 mi East 10.4 mph 18.4 mph N/A   Overcast
3:55 AM 68.0 °F 50.0 °F 52% 30.28 in 10.0 mi East 9.2 mph - N/A   Overcast
4:15 AM 68.0 °F 50.0 °F 52% 30.27 in 10.0 mi East 11.5 mph 18.4 mph N/A   Overcast
4:35 AM 66.2 °F 50.0 °F 56% 30.28 in 10.0 mi East 12.7 mph - N/A   Mostly Cloudy
4:55 AM 66.2 °F 51.8 °F 60% 30.27 in 10.0 mi ESE 11.5 mph - N/A   Mostly Cloudy
5:15 AM 66.2 °F 51.8 °F 60% 30.28 in 10.0 mi ESE 10.4 mph 19.6 mph N/A   Mostly Cloudy
6:47 AM 66.2 °F 50.0 °F 56% 30.29 in 10.0 mi ESE 13.8 mph 18.4 mph N/A   Mostly Cloudy
7:47 AM 66.2 °F 50.0 °F 56% 30.31 in 10.0 mi East 13.8 mph 18.4 mph N/A   Mostly Cloudy
9:47 AM 71.6 °F 50.0 °F 46% 30.34 in 10.0 mi ESE 13.8 mph 19.6 mph N/A   Mostly Cloudy
11:47 AM 71.6 °F 51.8 °F 50% 30.33 in 10.0 mi ESE 16.1 mph 20.7 mph N/A   Scattered Clouds
12:47 PM 71.6 °F 51.8 °F 50% 30.30 in 10.0 mi ESE 13.8 mph - N/A   Mostly Cloudy
1:47 PM 71.6 °F 51.8 °F 50% 30.27 in 10.0 mi East 13.8 mph - N/A   Mostly Cloudy
2:47 PM 73.4 °F 53.6 °F 50% 30.24 in 10.0 mi SE 13.8 mph - N/A   Scattered Clouds
3:47 PM 71.6 °F 53.6 °F 53% 30.23 in 10.0 mi ESE 13.8 mph - N/A   Scattered Clouds
5:47 PM 68.0 °F 53.6 °F 60% 30.23 in 10.0 mi ESE 6.9 mph - N/A   Scattered Clouds
6:47 PM 66.2 °F 55.4 °F 68% 30.23 in 10.0 mi ESE 5.8 mph - N/A   Mostly Cloudy
7:15 PM 66.2 °F 55.4 °F 68% 30.23 in 10.0 mi SE 5.8 mph - N/A   Mostly Cloudy
7:35 PM 66.2 °F 55.4 °F 68% 30.23 in 10.0 mi ESE 4.6 mph - N/A   Mostly Cloudy
7:55 PM 66.2 °F 55.4 °F 68% 30.23 in 10.0 mi ESE 5.8 mph - N/A   Scattered Clouds
8:15 PM 66.2 °F 55.4 °F 68% 30.23 in 10.0 mi ESE 4.6 mph - N/A   Mostly Cloudy
8:35 PM 66.2 °F 55.4 °F 68% 30.23 in 10.0 mi SE 5.8 mph - N/A   Mostly Cloudy
8:55 PM 66.2 °F 55.4 °F 68% 30.24 in 10.0 mi ESE 3.5 mph - N/A   Mostly Cloudy
9:15 PM 66.2 °F 59.0 °F 78% 30.24 in 10.0 mi SE 4.6 mph - N/A   Mostly Cloudy
9:35 PM 68.0 °F 59.0 °F 73% 30.24 in 10.0 mi Calm Calm - N/A   Mostly Cloudy
9:55 PM 68.0 °F 57.2 °F 68% 30.24 in 10.0 mi Calm Calm - N/A   Overcast
10:15 PM 68.0 °F 59.0 °F 73% 30.24 in 10.0 mi Calm Calm - N/A   Overcast
10:35 PM 68.0 °F 59.0 °F 73% 30.24 in 10.0 mi Calm Calm - N/A   Overcast
11:15 PM 66.2 °F 59.0 °F 78% 30.23 in 10.0 mi Calm Calm - N/A   Mostly Cloudy
11:35 PM 66.2 °F 59.0 °F 78% 30.23 in 10.0 mi Calm Calm - N/A   Overcast
11:55 PM 64.4 °F 59.0 °F 83% 30.23 in 10.0 mi Calm Calm - N/A   Overcast